Change the Weather History Date:

Sunday, January 27, 2013

  Actual Average Record
Temperature  
Mean Temperature 72 °F 71 °F  
Max Temperature 81 °F 79 °F 91 °F (1997)
Min Temperature 63 °F 64 °F 58 °F (2007)
Degree Days  
Heating Degree Days 0 0  
Month to date heating degree days 0 0  
Since 1 July heating degree days 0 0  
Cooling Degree Days 7 6  
Month to date cooling degree days 172 173  
Year to date cooling degree days 172 173  
Growing Degree Days 22 (Base 50)    
Moisture  
Dew Point 61 °F    
Average Humidity 69    
Maximum Humidity 87    
Minimum Humidity 51    
Precipitation  
Precipitation 0.03 in 0.34 in 3.10 in (1982)
Month to date precipitation 8.20 7.94  
Year to date precipitation 8.20 7.94  
Snow  
Snow 0.00 in - - ()
Month to date snowfall 0.0  
Since 1 July snowfall 0.0  
Snow Depth 0.00 in    
Sea Level Pressure  
Sea Level Pressure 29.97 in    
Wind  
Wind Speed 9 mph (SSE)    
Max Wind Speed 22 mph    
Max Gust Speed 30 mph    
Visibility 10 miles    
Events Rain    
T = Trace of Precipitation, MM = Missing Value Source: NWS Daily Summary

Daily Weather History Graph

Daily Weather History Graph

Search for Another Location

Airport or City:

Trip Planner

Search our weather history database for the weather conditions in past years. The results will help you decide how hot, cold, wet, or windy it might be!

Date:

Astronomy

Jan. 27, 2013 Rise Set
Actual Time 6:56 AM HST 6:09 PM HST
Civil Twilight 6:33 AM HST 6:32 PM HST
Nautical Twilight 6:06 AM HST 6:59 PM HST
Astronomical Twilight 5:40 AM HST 7:25 PM HST
Moon 6:59 PM HST (1/27) 7:07 AM HST (1/27)
Length of Visible Light 11h 59m
Length of Day
11h 13m
Waxing Gibbous, 99% of the Moon is Illuminated
Jan 27
Waxing Gibbous
Feb 3
Last Quarter
Feb 9
New
Feb 17
First Quarter
Feb 25
Full

Hourly Weather History & Observations

Time (HST) Temp. Heat Index Dew Point Humidity Pressure Visibility Wind Dir Wind Speed Gust Speed Precip Events Conditions
12:53 AM 69.1 °F - 64.0 °F 84% 29.99 in 10.0 mi South 6.9 mph - N/A   Mostly Cloudy
1:53 AM 69.1 °F - 63.0 °F 81% 29.98 in 10.0 mi SSE 10.4 mph - N/A   Mostly Cloudy
2:53 AM 69.1 °F - 62.1 °F 78% 29.96 in 10.0 mi SSE 9.2 mph - N/A   Mostly Cloudy
3:53 AM 66.9 °F - 63.0 °F 87% 29.96 in 9.0 mi SSE 8.1 mph - 0.00 in Rain Light Rain
4:53 AM 66.9 °F - 61.0 °F 81% 29.97 in 10.0 mi SSE 3.5 mph - 0.00 in   Mostly Cloudy
5:40 AM 66.9 °F - 63.0 °F 87% 29.98 in 7.0 mi SE 10.4 mph - 0.01 in Rain Light Rain
5:53 AM 66.9 °F - 63.0 °F 87% 29.98 in 10.0 mi South 8.1 mph - 0.01 in   Overcast
6:04 AM 66.9 °F - 63.0 °F 87% 29.99 in 10.0 mi SSE 8.1 mph - N/A   Overcast
6:53 AM 68.0 °F - 63.0 °F 84% 30.01 in 4.0 mi South 9.2 mph - 0.00 in Rain Light Rain
7:29 AM 68.0 °F - 64.0 °F 87% 30.02 in 10.0 mi SSE 4.6 mph - 0.01 in   Overcast
7:53 AM 68.0 °F - 64.0 °F 87% 30.03 in 9.0 mi SSE 5.8 mph - 0.01 in Rain Light Rain
8:53 AM 69.1 °F - 63.0 °F 81% 30.04 in 10.0 mi SSW 9.2 mph - 0.01 in Rain Light Rain
9:53 AM 71.1 °F - 64.0 °F 78% 30.04 in 10.0 mi SSW 9.2 mph - 0.00 in   Overcast
10:53 AM 73.9 °F - 64.9 °F 73% 30.01 in 10.0 mi South 5.8 mph - N/A   Mostly Cloudy
11:53 AM 77.0 °F - 61.0 °F 58% 29.99 in 10.0 mi SSE 10.4 mph - N/A   Mostly Cloudy
12:53 PM 79.0 °F - 61.0 °F 54% 29.95 in 10.0 mi SSE 12.7 mph - N/A   Mostly Cloudy
1:53 PM 81.0 °F 81.7 °F 61.0 °F 50% 29.92 in 10.0 mi SE 18.4 mph 23.0 mph N/A   Scattered Clouds
2:53 PM 80.1 °F 80.9 °F 60.1 °F 50% 29.90 in 10.0 mi SSE 16.1 mph 21.9 mph N/A   Mostly Cloudy
3:53 PM 75.9 °F - 61.0 °F 60% 29.91 in 10.0 mi SSE 18.4 mph 28.8 mph N/A   Scattered Clouds
4:07 PM 73.9 °F - 60.1 °F 62% 29.91 in 10.0 mi SSE 12.7 mph 28.8 mph N/A   Mostly Cloudy
4:53 PM 75.0 °F - 57.9 °F 55% 29.91 in 10.0 mi South 9.2 mph - N/A   Scattered Clouds
5:53 PM 73.0 °F - 57.9 °F 59% 29.92 in 10.0 mi South 6.9 mph - N/A   Mostly Cloudy
6:53 PM 71.1 °F - 57.9 °F 63% 29.94 in 10.0 mi SSE 8.1 mph - N/A   Mostly Cloudy
7:53 PM 68.0 °F - 57.0 °F 68% 29.96 in 10.0 mi SE 4.6 mph - N/A   Mostly Cloudy
8:53 PM 66.9 °F - 57.0 °F 70% 29.98 in 10.0 mi SSE 6.9 mph - N/A   Clear
9:53 PM 64.9 °F - 55.9 °F 73% 29.98 in 10.0 mi Calm Calm - N/A   Clear
10:53 PM 63.0 °F - 55.9 °F 78% 29.99 in 10.0 mi South 4.6 mph - N/A   Clear
11:53 PM 64.9 °F - 55.0 °F 70% 29.98 in 10.0 mi South 4.6 mph - N/A   Clear